| time (UTC) | temp F | wind direction | speed MPH | gust MPH | rain 1hr in | rain 24hr in | rain mn in | humidity % | barometer mb |
| 20260505075333 | 60 | 270 | 0.0 | 1.0 | 0.00 | 0.01 | 0.00 | 62 | 1019.2 |
| 20260505073833 | 60 | 270 | 0.0 | 1.0 | 0.00 | 0.01 | 0.00 | 61 | 1019.2 |
| 20260505072333 | 61 | 270 | 0.0 | 1.0 | 0.00 | 0.01 | 0.00 | 60 | 1019.0 |
| 20260505070834 | 62 | 270 | 1.0 | 2.0 | 0.00 | 0.01 | 0.00 | 58 | 1018.8 |
| 20260505065333 | 63 | 315 | 1.0 | 3.0 | 0.00 | 0.01 | 0.00 | 57 | 1018.8 |
| 20260505063833 | 64 | 270 | 1.0 | 2.0 | 0.00 | 0.01 | 0.00 | 52 | 1018.6 |
| 20260505062333 | 65 | 270 | 1.0 | 1.0 | 0.00 | 0.02 | 0.00 | 51 | 1018.6 |
| 20260505060832 | 65 | 283 | 1.0 | 2.0 | 0.00 | 0.04 | 0.00 | 51 | 1018.7 |
| 20260505055333 | 65 | 270 | 0.0 | 3.0 | 0.00 | 0.04 | 0.00 | 48 | 1018.7 |
| 20260505053834 | 65 | 270 | 1.0 | 3.0 | 0.00 | 0.04 | 0.00 | 51 | 1018.4 |
| 20260505052333 | 64 | 292 | 1.0 | 2.0 | 0.00 | 0.04 | 0.00 | 53 | 1018.6 |
| 20260505050832 | 65 | 272 | 3.0 | 5.0 | 0.00 | 0.04 | 0.00 | 51 | 1018.5 |
| 20260505040832 | 66 | 278 | 5.0 | 7.0 | 0.00 | 0.05 | 0.00 | 50 | 1018.2 |
| 20260505035334 | 67 | 286 | 3.0 | 6.0 | 0.00 | 0.07 | 0.00 | 51 | 1018.1 |
| 20260505033833 | 68 | 279 | 3.0 | 6.0 | 0.00 | 0.08 | 0.00 | 50 | 1018.1 |
| 20260505032332 | 67 | 270 | 3.0 | 6.0 | 0.00 | 0.08 | 0.00 | 50 | 1018.2 |
| 20260505030833 | 68 | 271 | 3.0 | 3.0 | 0.00 | 0.08 | 0.00 | 51 | 1018.4 |
| 20260505025333 | 67 | 270 | 3.0 | 6.0 | 0.00 | 0.09 | 0.00 | 52 | 1018.4 |
| 20260505023833 | 67 | 283 | 3.0 | 6.0 | 0.00 | 0.09 | 0.00 | 52 | 1018.4 |
| 20260505022332 | 67 | 297 | 2.0 | 3.0 | 0.00 | 0.11 | 0.00 | 52 | 1018.7 |
| 20260505020833 | 69 | 270 | 2.0 | 3.0 | 0.00 | 0.12 | 0.00 | 52 | 1018.8 |
| 20260505015333 | 68 | 270 | 1.0 | 3.0 | 0.00 | 0.12 | 0.00 | 51 | 1018.9 |
| 20260505013833 | 68 | 278 | 2.0 | 7.0 | 0.00 | 0.12 | 0.00 | 52 | 1019.3 |
| 20260505012333 | 69 | 270 | 2.0 | 5.0 | 0.00 | 0.12 | 0.00 | 52 | 1019.2 |
| 20260505010832 | 68 | 292 | 2.0 | 3.0 | 0.00 | 0.12 | 0.00 | 55 | 1019.1 |
| 20260505005334 | 67 | 255 | 2.0 | 3.0 | 0.00 | 0.12 | 0.00 | 57 | 1019.1 |
| 20260505003834 | 66 | 252 | 2.0 | 6.0 | 0.00 | 0.12 | 0.00 | 59 | 1019.0 |
| 20260505002333 | 66 | 285 | 3.0 | 6.0 | 0.00 | 0.12 | 0.00 | 58 | 1019.0 |
| 20260505000832 | 66 | 270 | 2.0 | 3.0 | 0.00 | 0.12 | 0.00 | 58 | 1019.0 |
| 20260504235333 | 66 | 270 | 2.0 | 3.0 | 0.00 | 0.12 | 0.00 | 60 | 1018.9 |
| 20260504233833 | 65 | 278 | 1.0 | 3.0 | 0.00 | 0.12 | 0.00 | 60 | 1018.7 |
| 20260504232332 | 64 | 306 | 2.0 | 5.0 | 0.00 | 0.12 | 0.00 | 61 | 1018.5 |
| 20260504230833 | 64 | 273 | 2.0 | 3.0 | 0.00 | 0.12 | 0.00 | 59 | 1018.7 |
| 20260504225333 | 66 | 282 | 2.0 | 3.0 | 0.00 | 0.12 | 0.12 | 60 | 1018.5 |
| 20260504223833 | 66 | 225 | 0.0 | 1.0 | 0.00 | 0.12 | 0.12 | 62 | 1018.5 |
| 20260504222333 | 64 | 225 | 0.0 | 1.0 | 0.00 | 0.12 | 0.12 | 69 | 1018.2 |
| 20260504220833 | 61 | 225 | 0.0 | 1.0 | 0.00 | 0.14 | 0.12 | 79 | 1017.8 |
| 20260504215333 | 56 | 225 | 0.0 | 0.0 | 0.00 | 0.15 | 0.12 | 87 | 1017.7 |
| 20260504213834 | 51 | 225 | 0.0 | 0.0 | 0.00 | 0.15 | 0.12 | 92 | 1017.6 |
| 20260504212334 | 47 | 225 | 0.0 | 1.0 | 0.00 | 0.18 | 0.12 | 90 | 1017.5 |
| 20260504210833 | 46 | 225 | 0.0 | 0.0 | 0.00 | 0.25 | 0.12 | 90 | 1017.2 |
| 20260504205334 | 46 | 225 | 0.0 | 0.0 | 0.00 | 0.31 | 0.12 | 89 | 1017.1 |
| 20260504203833 | 46 | 225 | 0.0 | 0.0 | 0.00 | 0.35 | 0.12 | 89 | 1016.9 |
| 20260504202333 | 46 | 225 | 0.0 | 0.0 | 0.00 | 0.39 | 0.12 | 89 | 1016.8 |
| 20260504200834 | 47 | 225 | 0.0 | 0.0 | 0.00 | 0.43 | 0.12 | 89 | 1016.7 |
| 20260504195333 | 47 | 225 | 0.0 | 0.0 | 0.00 | 0.46 | 0.12 | 89 | 1016.5 |
| 20260504193833 | 47 | 225 | 0.0 | 0.0 | 0.00 | 0.48 | 0.12 | 89 | 1016.5 |
| 20260504192333 | 47 | 225 | 0.0 | 0.0 | 0.00 | 0.48 | 0.12 | 89 | 1016.3 |
| 20260504190834 | 47 | 225 | 0.0 | 0.0 | 0.00 | 0.50 | 0.12 | 89 | 1016.1 |
| 20260504185334 | 47 | 225 | 0.0 | 0.0 | 0.00 | 0.52 | 0.12 | 89 | 1016.2 |
| 20260504183832 | 47 | 225 | 0.0 | 0.0 | 0.00 | 0.54 | 0.12 | 89 | 1016.0 |
| 20260504182334 | 47 | 225 | 0.0 | 0.0 | 0.00 | 0.56 | 0.12 | 89 | 1016.0 |
| 20260504180833 | 47 | 225 | 0.0 | 0.0 | 0.00 | 0.57 | 0.12 | 89 | 1015.8 |
| 20260504175333 | 48 | 225 | 0.0 | 0.0 | 0.00 | 0.58 | 0.12 | 89 | 1015.9 |
| 20260504173833 | 48 | 225 | 0.0 | 0.0 | 0.00 | 0.58 | 0.12 | 89 | 1015.9 |
| 20260504172332 | 48 | 225 | 0.0 | 0.0 | 0.00 | 0.58 | 0.12 | 89 | 1015.8 |
| 20260504170834 | 48 | 225 | 0.0 | 0.0 | 0.00 | 0.58 | 0.12 | 89 | 1015.9 |
| 20260504150834 | 50 | 225 | 0.0 | 0.0 | 0.00 | 0.73 | 0.12 | 89 | 1016.6 |
| 20260504140833 | 51 | 225 | 0.0 | 0.0 | 0.00 | 0.90 | 0.12 | 90 | 1016.7 |
| 20260504080833 | 57 | 225 | 1.0 | 2.0 | 0.00 | 0.97 | 0.11 | 84 | 1015.1 |